Location: ??????
(38.1303°N, 24.0039°E)
Time: 18:54:25
(UTC+00:00)

DELTA 2 R/B (1) - Pass Details

Date: 20 June 2021
Orbit: 789 x 804 km, 39.6° (Epoch: 26 July)

Event Time Altitude Azimuth Distance (km) Brightness Sun altitude
Exits shadow 00:16:56 32° 272° (W) 1,338 4.5 -23.1°
Maximum altitude 00:19:37 79° 354° (N) 806 3.6 -22.9°
Drops below altitude 10° 00:25:10 10° 81° (E) 2,350 6.5 -22.3°
Sets 00:27:39 0° 83° (E) 3,281 7.3 -22.1°
